Location: Basenheid
(47.4098°N, 9.0691°E)
Time: 02:31:00
(UTC+00:00)

Daily predictions for brighter satellites

Satellite Brightness Start Highest point End
(mag) Time Altitude Azimuth Time Altitude Azimuth Time Altitude Azimuth
ADEOS II 4.4 00:02:04 10° ENE 00:04:12 12° E 00:06:20 10° ESE
NOSS 2-2 (D) 4.2 00:01:36 10° NW 00:06:38 85° SW 00:11:37 20° SE
Cosmos 1461 3.5 00:02:58 10° NW 00:06:31 39° WSW 00:06:31 39° WSW
Cosmos 1867 3.7 00:05:01 35° SW 00:07:24 73° NW 00:12:54 10° NE
Cosmos 1674 Rocket 3.6 00:06:55 54° SW 00:07:45 69° W 00:12:04 10° N
Cosmos 2221 Rocket 4.1 00:06:47 40° WSW 00:07:45 48° WNW 00:12:03 10° N
Cosmos 2298 Rocket 4.0 00:07:41 45° S 00:09:22 78° ESE 00:14:41 10° NNE
Cosmos 1674 3.6 00:10:51 35° W 00:11:14 36° WNW 00:14:44 10° N
USA 306 3.0 00:11:52 51° SE 00:11:52 51° SE 00:15:56 10° ENE
Cosmos 1238 Rocket 3.6 00:10:07 10° NNW 00:12:06 28° WNW 00:12:06 28° WNW
Thor Agena Rocket 4.1 00:08:25 10° NNE 00:13:33 49° E 00:15:34 32° SSE
ATLAS CENTAUR R/B 3.4 00:11:19 10° WNW 00:13:59 18° W 00:13:59 18° W
USA 307 3.1 00:15:20 48° SE 00:15:20 48° SE 00:19:22 10° ENE
SL-16 R/B 3.8 00:16:08 18° SE 00:18:35 23° ESE 00:22:57 10° NE
ERBS 3.5 00:22:52 28° E 00:22:52 28° E 00:24:46 10° ENE
Cosmos 1980 3.7 00:20:38 39° S 00:22:45 74° ESE 00:28:24 10° NNE
ATLAS 5 CENTAUR R/B 2.9 00:11:49 10° NW 00:23:16 54° WSW 00:24:40 40° S
Cosmos 1378 Rocket 4.0 00:22:19 41° WSW 00:23:22 50° WNW 00:27:43 10° N
Cosmos 2333 Rocket 3.7 00:19:42 14° WSW 00:23:46 31° NW 00:28:46 10° NNE
CZ-4C R/B 3.3 00:16:51 10° NW 00:23:54 49° WSW 00:27:53 29° S
Cosmos 1455 Rocket 3.8 00:19:44 10° N 00:24:06 49° ENE 00:26:10 28° SE
USA 215 4.1 00:19:48 10° NE 00:26:04 50° NNW 00:32:19 10° W
Cosmos 332 Rocket 4.1 00:28:23 39° SSE 00:29:53 56° ESE 00:34:35 10° NNE
NOSS 0 Rocket 4.0 00:29:22 33° SW 00:32:23 80° WNW 00:38:40 10° NNE
USA 32 4.0 00:35:15 38° SSW 00:37:17 79° W 00:42:35 10° N
Meteor 1-24 Rocket 4.5 00:34:53 23° SSE 00:37:56 44° E 00:43:06 10° NNE
Meteor 2-10 Rocket 3.6 00:32:51 10° NNW 00:38:34 87° WSW 00:41:17 32° S
Cosmos 1975 Rocket 3.3 00:39:39 38° SSE 00:41:11 65° E 00:45:37 10° NNE
ADEOS Rocket 4.5 00:42:18 16° WSW 00:43:53 18° W 00:47:43 10° NW
Cosmos 839 Rocket 4.3 00:37:57 10° NW 00:44:13 60° WSW 00:49:12 21° SSE
USA 308 2.7 00:44:46 47° SW 00:45:53 76° SE 00:50:04 10° ENE
Cosmos 2219 Rocket 3.8 00:42:56 12° W 00:47:05 27° NW 00:51:49 10° N
Cosmos 1025 Rocket 3.3 00:47:03 35° SSE 00:48:40 62° E 00:52:56 10° NNE
Cosmos 1455 3.7 00:46:49 10° N 00:50:11 32° ENE 00:52:37 16° SE
Cosmos 1269 Rocket 4.1 00:45:43 10° NNW 00:51:01 75° ENE 00:55:07 17° SSE
GP-B 3.3 00:52:16 10° N 00:56:38 57° W 00:58:07 37° SW
Meteor 2-5 Rocket 3.8 00:55:38 28° S 00:58:46 76° E 01:04:27 10° NNE
CZ-2D R/B 2.4 00:54:10 10° NNE 00:59:32 64° ESE 01:02:28 26° S
Lacrosse 5 2.4 00:58:31 32° S 01:00:21 45° SE 01:05:13 10° ENE
Cosmos 1300 3.4 00:57:32 10° NNW 01:01:00 34° W 01:01:27 33° WSW
USA 267 4.2 01:02:15 24° SW 01:02:47 25° SW 01:07:58 10° WNW
Cosmos 371 Rocket 4.3 01:06:03 23° WSW 01:08:27 37° WNW 01:13:00 10° N
USA 305 3.0 01:07:08 26° WSW 01:09:22 70° NNW 01:13:33 10° ENE
Cosmos 1544 Rocket 3.6 01:06:03 10° N 01:10:30 78° E 01:13:10 23° SSE
USA 229 DEB 4.5 01:04:22 10° NW 01:11:04 38° WSW 01:15:06 23° SSW
USA 229 4.5 01:04:27 10° NW 01:11:11 38° WSW 01:15:15 23° SSW
BREEZE-M DEB (TANK) 4.3 00:56:54 10° WSW 01:12:38 88° NNW 01:16:47 10° ENE
Cosmos 2237 Rocket 2.7 01:11:28 23° WSW 01:14:47 51° WNW 01:20:22 10° NNE
COSMOS 2428 4.4 01:12:23 10° W 01:16:54 24° NW 01:21:28 10° N
AQUA 4.2 01:14:08 10° NNE 01:18:52 60° E 01:21:49 22° S
Cosmos 304 Rocket 4.4 01:17:17 25° WSW 01:19:42 45° WNW 01:24:22 10° NNE
SL-16 R/B 2.5 01:14:42 15° SSE 01:19:59 84° WSW 01:26:16 10° NNW
Helios 1A 3.8 01:17:01 10° SE 01:21:05 50° ENE 01:25:12 10° N
SAR-Lupe-2 3.9 01:18:55 10° NNE 01:22:28 57° ESE 01:24:09 28° S
Lacrosse 5 rocket 2.0 01:21:54 29° S 01:23:10 38° SE 01:26:57 10° ENE
SME Rocket 3.9 01:24:34 29° SW 01:25:53 36° W 01:30:27 10° NNW
Cosmos 1953 4.4 01:24:06 10° WNW 01:25:56 13° W 01:26:26 13° W
Resurs 1-4 Rocket 2.1 01:23:27 10° N 01:28:43 73° WNW 01:31:56 24° SSW
Cosmos 2074 Rocket 4.0 01:22:25 10° N 01:28:44 81° W 01:33:59 16° S
Cosmos 2297 3.7 01:27:51 10° NNW 01:33:39 84° WSW 01:39:22 10° SSE
Cosmos 1943 Rocket 2.2 01:27:59 10° NNW 01:33:39 67° WSW 01:39:14 10° SSE
Cosmos 1703 4.2 01:35:52 15° SSE 01:38:51 44° E 01:42:37 10° NNE
CRYOSAT 2 4.3 01:38:47 18° S 01:42:24 78° W 01:47:20 10° N
Cosmos 2184 Rocket 4.0 01:37:23 10° NNW 01:43:36 66° W 01:48:45 15° S
Cosmos 2278 Rocket 3.8 01:40:44 10° WNW 01:44:08 16° W 01:45:24 15° WSW
ADEOS II 2.1 01:39:23 10° NNE 01:44:41 85° ESE 01:48:40 18° SSW
IDEFIX/ARIANE 42P 2.7 01:40:17 10° NNE 01:45:35 73° ESE 01:49:51 16° S
Cosmos 1610 Rocket 4.5 01:41:13 10° N 01:47:26 90° W 01:53:34 10° S
USA 306 3.7 01:47:34 10° W 01:51:31 46° NNW 01:55:34 10° NE
Cosmos 2084 Rocket 3.8 01:49:15 20° WSW 01:51:39 48° NW 01:55:21 10° NNE
Cosmos 292 Rocket 4.0 01:48:10 18° S 01:51:42 68° ESE 01:56:29 10° NNE
USA 307 3.7 01:51:04 11° W 01:54:59 48° NNW 01:59:04 10° NE
NPP 4.0 01:51:26 10° N 01:56:40 53° WNW 02:00:35 18° SW
ERBS 3.7 01:54:54 12° W 01:57:17 29° NNW 02:00:03 10° NE
Cosmos 2369 Rocket 2.3 01:53:19 10° NNW 01:58:57 80° ENE 02:04:33 10° SSE
SL-16 R/B 2.4 01:58:00 18° SW 02:02:13 62° WNW 02:07:53 10° NNE
Cosmos 2228 3.0 01:58:05 10° N 02:02:29 87° E 02:06:49 10° S
Cosmos 614 Rocket 4.0 01:57:23 10° NNW 02:02:30 62° WSW 02:07:38 10° S
IRS-1D 4.0 01:57:15 10° NNE 02:02:35 63° ESE 02:07:48 10° S
EO 1 Del DPAF 3.0 01:59:21 10° N 02:02:52 74° WNW 02:05:16 19° SSW
Cosmos 2251 Rocket 3.6 01:59:16 10° NNW 02:04:33 87° ENE 02:09:51 10° SSE
Meteor 1-28 Rocket 3.5 02:03:36 17° SSW 02:06:14 45° W 02:09:50 10° NNW
Cosmos 1656 Rocket 3.8 02:02:54 10° NNW 02:08:21 76° ENE 02:13:45 10° SSE
COSMOS 2455 2.9 02:04:48 16° SSW 02:09:45 86° ESE 02:15:49 10° NE
Cosmos 1536 Rocket 3.9 02:08:03 17° SSW 02:11:15 51° WNW 02:15:34 10° N
COSMOS 2441 4.4 02:13:00 10° NNE 02:17:55 87° ESE 02:22:45 10° SSW
Nadezhda 1 Rocket 4.3 02:15:05 13° SSW 02:20:44 57° WNW 02:26:56 10° N
MSX 3.9 02:16:51 10° NNE 02:22:38 76° WNW 02:28:23 10° SSW
Cosmos 1455 3.7 02:22:47 10° NW 02:25:27 19° W 02:27:23 13° SW
Cosmos 1603 4.3 02:20:17 10° S 02:25:44 55° ESE 02:31:17 10° NE
USA 308 4.1 02:21:49 10° W 02:25:46 39° NNW 02:29:44 10° ENE
MOS 1 Rocket 4.3 02:23:22 14° SW 02:26:07 25° W 02:29:41 10° NW
Cosmos 1271 Rocket 3.6 02:26:03 10° NNW 02:29:26 31° W 02:32:45 11° SSW
Cosmos 1606 Rocket 3.6 02:29:15 10° NNW 02:33:39 68° W 02:37:59 10° S
ALOS 3.4 02:32:30 10° NNE 02:36:58 43° E 02:41:24 10° S
CZ-2D R/B 3.7 02:35:03 10° N 02:39:07 22° WNW 02:43:07 10° WSW
CZ-2C R/B 3.5 02:34:11 10° NNE 02:39:09 46° E 02:43:56 10° S
Lacrosse 5 2.6 02:38:22 10° WSW 02:43:20 50° NNW 02:48:19 10° NE
Helios 1B rocket 2.5 02:39:45 10° NNE 02:43:50 80° ESE 02:47:54 10° SSW
Cosmos 2366 rocket 4.0 02:39:43 10° N 02:45:54 89° W 02:52:06 10° S
Cosmos 2341 Rocket 4.1 02:40:05 10° NNW 02:46:24 64° W 02:52:42 10° S
USA 305 4.4 02:45:36 10° WNW 02:49:26 34° N 02:53:16 10° ENE
Meteor 2-1 Rocket 4.4 02:45:21 10° NNW 02:50:59 56° W 02:56:29 10° S
BREEZE-M DEB (TANK) 3.0 02:47:37 10° SW 02:51:51 41° SSE 02:54:03 10° E
Cosmos 407 Rocket 3.5 02:47:11 10° NNW 02:52:29 66° WSW 02:57:40 10° S
SL-8 Rocket 4.1 02:46:52 10° NNW 02:53:09 68° W 02:59:24 10° S
Cosmos 1371 Rocket 4.4 02:50:45 10° S 02:55:51 66° ESE 03:01:01 10° NNE
Cosmos 1328 4.1 02:53:03 10° SSW 02:56:54 52° WNW 03:00:50 10° N
Cosmos 1943 3.3 02:51:29 10° SSW 02:57:11 80° WNW 03:02:55 10° NNE
Genesis I 3.3 02:56:11 10° NW 03:00:13 62° WSW 03:04:09 10° SSE
Cosmos 2237 Rocket 4.4 02:57:33 10° WNW 03:00:17 13° NNW 03:03:02 10° N
